Location: Newark
(35.2672°N, 80.7344°W)
Time: 23:25:20
(UTC+00:00)

N. Korean satellite - Visible Passes

Search period start: 09 December 2019 00:00
Search period end: 19 December 2019 00:00
Orbit: 456 x 506 km, 97.2° (Epoch: 09 December)

Date Brightness Start Highest point End Pass type
(mag) Time Alt. Az. Time Alt. Az. Time Alt. Az.
09 Dec 9.9 10:15:30 10° ENE 10:17:08 13° E 10:18:45 10° ESE visible
09 Dec 7.4 11:47:32 10° NNW 11:50:34 27° WNW 11:53:32 10° SW visible
10 Dec 6.4 11:21:45 10° N 11:25:14 64° WNW 11:28:39 10° SSW visible
10 Dec 9.9 23:28:22 10° SW 23:30:38 16° W 23:32:55 10° NW visible
11 Dec 7.4 10:56:24 10° NNE 10:59:49 50° E 11:03:10 10° S visible
11 Dec 8.6 23:01:44 10° SSW 23:05:06 33° W 23:08:28 10° NNW visible
12 Dec 9.2 10:31:33 10° NE 10:34:18 21° E 10:37:00 10° SSE visible
12 Dec 6.9 22:35:57 10° S 22:39:38 77° WSW 22:43:20 10° NNW visible
13 Dec 7.1 11:39:01 10° N 11:42:13 35° WNW 11:45:22 10° SW visible
14 Dec 6.4 11:13:22 10° N 11:16:51 87° WNW 11:20:17 10° SSW visible
14 Dec 9.6 23:19:30 10° SW 23:22:14 20° W 23:24:58 10° NW visible
15 Dec 8.0 10:48:09 10° NNE 10:51:24 37° E 10:54:36 10° SSE visible
15 Dec 8.1 22:53:12 10° S 22:56:44 42° W 23:00:14 10° NNW visible
16 Dec 9.5 10:23:33 10° NE 10:25:51 17° E 10:28:06 10° SE visible
16 Dec 7.8 11:56:31 10° NNW 11:59:09 20° WNW 12:01:45 10° WSW visible
17 Dec 6.7 11:30:31 10° N 11:33:50 46° WNW 11:37:07 10° SSW visible
17 Dec 10.1 23:38:05 10° WSW 23:39:24 12° W 23:40:43 10° WNW visible
18 Dec 6.7 11:04:59 10° NNE 11:08:26 70° E 11:11:50 10° S visible
18 Dec 9.2 23:10:46 10° SSW 23:13:49 24° W 23:16:52 10° NW visible
